Theta_e
354 354 354 354 354 356 357 355 355 354 354 355 357 357 357 358 360 359 360 362 362 362 363 364 364 363 363 362 361 358 357 356 352 351 351 350 346 343 344 342 345 344
354 355 356 356 355 357 358 357 356 354 354 354 357 358 359 360 360 359 359 361 363 361 363 364 363 363 363 362 361 358 357 355 353 356 350 351 348 344 342 342 342 344
355 355 355 355 356 356 358 358 357 355 354 356 357 358 360 361 360 359 359 361 362 362 362 364 363 363 363 362 361 359 356 355 354 355 351 349 350 347 344 343 341 342
355 356 356 356 357 357 357 358 357 356 355 355 356 359 360 362 361 359 359 364 361 361 362 363 363 363 363 362 362 360 357 356 356 354 352 350 351 349 346 345 344 342
355 356 357 357 358 358 358 357 358 357 356 356 357 359 359 359 360 359 360 360 361 361 361 362 362 362 363 362 362 360 359 357 356 355 353 350 350 350 349 346 344 342
356 357 358 358 358 358 357 356 358 359 358 358 358 359 360 360 360 360 359 360 361 361 361 362 362 362 363 362 363 361 359 358 357 355 354 351 350 350 351 348 346 343
355 356 357 358 358 358 357 356 356 359 359 359 360 359 359 360 359 360 359 360 361 361 361 361 362 362 363 362 362 361 360 359 358 356 354 355 351 349 349 349 347 345
356 357 358 359 358 358 358 357 355 356 359 359 359 360 358 357 359 360 360 359 359 361 361 362 362 362 363 362 361 361 361 361 359 357 355 355 352 349 348 349 348 346
356 356 358 358 358 358 358 357 356 355 357 358 358 359 359 357 356 359 360 359 358 359 360 361 362 362 363 363 362 361 360 360 360 358 356 355 354 351 349 348 348 347
356 357 357 358 358 358 358 358 357 355 356 357 357 358 358 358 356 355 359 360 358 357 357 358 361 362 362 362 362 361 361 360 359 358 358 357 356 354 351 348 348 348
356 357 356 357 358 358 358 358 357 356 355 356 357 357 357 357 357 355 354 358 359 358 357 357 358 361 361 361 362 362 361 361 360 358 357 358 357 356 357 351 349 348
356 356 356 356 357 358 358 358 357 356 355 355 356 356 356 357 357 356 354 354 358 360 359 358 358 359 360 360 361 361 361 361 361 359 358 357 358 357 357 354 351 349
355 355 356 356 356 357 357 357 355 355 356 355 356 356 355 356 356 357 357 354 354 358 360 360 359 359 359 360 360 360 361 360 360 360 359 358 358 358 358 357 354 352
356 356 356 356 356 356 356 355 355 352 353 355 356 355 354 355 356 356 357 357 355 355 358 361 360 359 359 359 359 359 360 360 360 360 359 358 357 358 358 358 356 355
356 356 357 357 357 356 355 355 354 352 351 353 355 355 355 354 355 357 356 356 358 357 356 358 360 360 359 359 358 358 358 359 359 359 359 358 357 357 358 358 358 356
356 357 357 357 357 356 355 355 355 353 351 351 354 355 354 354 353 355 357 356 356 358 358 358 359 361 354 342 345 358 358 359 359 359 359 358 357 356 356 358 358 357
357 356 356 356 357 357 356 355 354 353 352 351 352 355 355 355 354 352 354 357 356 357 358 359 359 359 342 335 336 340 354 358 358 358 359 358 358 356 355 356 357 357
357 357 356 355 356 356 356 355 354 353 352 351 351 353 356 357 356 354 353 356 358 357 357 359 360 347 335 333 334 333 339 358 358 358 359 359 359 358 357 356 356 357
358 357 356 355 355 356 356 356 354 353 352 352 351 352 355 357 357 357 355 355 358 357 357 358 359 344 334 331 331 331 331 343 358 358 357 358 359 358 358 357 356 356
359 358 357 356 356 356 356 356 354 353 353 354 353 353 353 355 357 357 357 355 355 357 358 358 359 345 331 329 328 328 330 335 356 357 357 357 358 359 358 357 357 356
359 358 357 357 357 356 355 355 355 354 353 354 354 353 352 353 355 357 358 358 356 355 358 359 360 340 329 327 326 325 327 329 354 357 357 356 356 357 358 358 357 357
360 358 358 358 358 357 355 355 355 355 353 354 354 354 354 354 354 355 357 358 358 356 355 357 361 336 328 326 325 324 325 340 351 355 355 355 355 355 356 358 358 357
360 360 359 359 359 358 356 355 355 355 355 355 353 352 353 353 353 354 355 357 358 358 356 354 356 341 326 323 323 323 325 345 350 353 355 355 355 356 357 357 358 358
361 360 360 360 360 359 358 357 356 357 357 357 354 352 351 353 354 355 355 356 356 358 358 357 356 342 322 322 321 320 329 348 351 353 354 355 356 357 357 357 358 350
362 362 361 361 361 361 361 359 357 357 358 359 358 355 353 353 354 354 355 356 356 357 352 356 358 349 320 318 319 318 328 349 353 353 353 354 355 356 357 357 357 355
364 363 363 363 363 363 363 361 360 359 359 360 360 359 356 355 355 355 355 356 357 357 358 357 358 359 339 314 315 316 319 346 353 353 353 354 355 355 356 356 357 357
Wind_Speed
12 11 11 11 10 9 10 11 10 9 8 8 9 10 11 10 9 9 9 8 9 9 8 8 7 7 7 6 6 7 7 7 7 6 6 6 5 5 5 4 4 4
14 13 10 9 9 8 8 10 11 10 8 8 9 9 9 9 10 10 9 9 9 9 8 8 8 8 7 7 6 7 7 7 7 5 7 6 6 6 6 5 5 4
14 13 13 12 12 12 11 10 11 10 9 9 8 8 8 9 9 9 9 9 10 10 9 8 8 8 8 7 6 7 8 8 8 7 7 7 6 7 6 6 5 5
15 15 14 14 12 12 10 9 11 10 10 8 9 9 8 8 9 10 9 10 10 10 10 9 9 8 8 8 8 7 8 8 8 7 8 6 6 7 7 6 5 6
17 15 14 13 12 11 11 11 12 12 12 11 9 8 8 8 8 9 9 9 9 10 10 10 9 9 9 8 8 7 7 8 7 7 8 8 7 7 7 7 6 7
15 14 14 14 13 13 12 12 11 11 11 11 11 8 9 10 9 10 10 10 10 10 11 10 10 10 10 9 8 8 8 8 8 8 8 9 8 8 7 8 8 7
16 15 15 13 13 13 12 12 10 10 11 10 9 10 9 11 11 11 11 11 11 11 11 11 10 10 10 9 9 9 9 9 8 10 10 8 8 9 8 8 9 8
17 15 15 13 15 15 14 13 12 11 11 10 11 12 11 11 12 11 11 12 11 11 12 11 11 11 11 10 10 10 10 8 9 10 10 9 8 9 10 8 8 9
17 16 16 16 17 15 16 14 14 12 11 12 12 11 11 11 11 11 12 12 12 11 11 11 12 11 11 10 11 11 12 10 10 10 11 11 10 10 10 9 8 9
15 15 17 17 17 15 17 15 14 13 11 12 12 11 12 11 12 11 10 12 12 12 11 11 12 12 11 11 12 12 12 12 11 10 10 11 12 10 10 10 11 9
16 15 16 17 17 15 16 16 15 14 12 13 12 12 12 11 11 11 10 11 12 13 13 12 12 13 13 13 12 12 13 12 11 10 10 11 12 11 10 11 11 11
18 17 17 18 18 16 16 16 15 14 14 13 13 13 13 12 12 11 12 13 12 13 13 13 12 12 13 13 13 12 12 12 12 11 11 11 11 11 12 11 11 12
18 18 17 17 17 16 14 14 15 14 14 15 14 14 13 13 13 13 12 13 14 13 13 13 13 13 12 12 12 12 13 12 12 12 12 11 11 12 12 12 12 12
18 18 17 17 16 15 15 15 15 14 14 13 14 15 14 13 13 14 13 12 13 13 13 12 12 12 12 12 12 12 12 13 13 13 13 12 12 12 12 13 13 13
16 16 16 16 16 16 15 15 15 14 14 13 13 14 13 14 13 13 14 13 12 13 13 12 12 12 11 12 12 13 13 14 14 14 13 13 13 13 12 13 13 13
16 15 15 16 16 16 16 16 14 14 14 14 14 15 14 14 14 13 13 14 13 13 13 12 12 10 14 20 17 14 14 12 12 13 14 13 13 13 13 13 14 13
16 16 15 16 16 16 16 16 16 14 14 14 14 14 14 14 14 15 13 13 14 14 14 12 12 11 18 19 20 21 16 13 13 13 14 14 13 13 13 14 14 14
16 16 16 17 15 16 16 16 15 15 14 14 14 14 13 13 14 15 14 13 13 14 14 14 13 16 19 20 21 21 19 15 13 12 12 13 13 14 13 12 13 13
16 16 17 16 17 17 15 15 15 15 15 14 15 14 12 14 15 14 14 13 13 15 15 15 14 18 19 20 20 20 21 18 12 13 12 13 13 14 13 13 12 12
16 16 16 17 16 16 15 15 15 16 16 15 13 12 13 13 13 15 14 14 13 14 15 15 15 16 20 21 21 21 21 19 14 14 13 13 13 13 13 13 13 13
16 16 16 16 15 15 15 15 16 15 15 14 13 14 14 14 14 14 14 14 15 13 12 14 13 19 20 22 22 22 22 19 15 13 12 12 12 12 13 13 13 13
17 16 16 15 15 14 15 15 14 15 15 14 13 12 12 11 11 12 13 13 14 14 13 13 13 19 21 22 23 21 21 14 13 14 13 13 12 12 12 13 13 14
16 16 16 15 15 15 16 16 15 14 13 11 12 12 12 13 13 14 13 13 14 14 15 14 13 16 20 21 21 22 16 12 12 12 13 14 14 12 12 13 13 14
15 16 15 15 15 16 17 16 14 12 12 11 12 13 13 14 13 12 11 12 14 15 15 14 14 12 18 20 20 20 18 13 11 12 14 14 13 12 11 12 14 19
15 15 15 15 16 16 14 14 14 13 12 10 11 11 11 9 9 10 11 11 12 13 14 14 11 10 13 16 18 18 17 12 12 12 14 14 12 12 12 12 13 13
13 14 14 15 15 13 12 12 10 10 11 11 11 10 10 10 9 9 11 11 10 11 10 10 9 8 8 15 17 18 20 14 11 12 14 13 12 12 12 12 13 12
Wind_Direction
189 190 191 190 194 192 186 187 194 194 193 181 179 183 185 186 181 181 181 180 182 182 183 186 184 186 191 179 174 173 172 171 172 173 171 171 178 177 186 195 192 172
192 194 194 193 194 193 190 189 190 194 191 187 182 179 184 177 183 180 179 181 182 186 181 183 185 184 184 186 172 171 175 172 175 175 178 175 185 178 192 199 199 208
192 194 195 195 195 195 192 187 188 193 194 192 184 177 178 180 178 182 180 179 183 186 184 182 184 184 185 188 179 170 178 181 181 180 179 187 181 184 192 193 201 211
193 195 196 198 196 195 193 186 189 191 193 194 192 184 179 178 178 180 182 182 183 186 188 184 186 185 184 188 182 176 183 186 185 175 182 187 187 184 192 191 199 205
194 196 197 199 198 196 196 195 191 190 192 195 191 184 182 179 179 184 183 188 185 187 187 189 187 188 185 183 184 182 183 190 190 178 182 190 194 186 193 189 198 206
199 198 196 195 196 194 199 202 196 190 190 188 193 183 184 184 185 187 188 188 189 187 189 190 190 191 187 185 183 190 187 190 193 190 183 192 195 195 191 191 195 203
198 198 198 196 196 199 201 202 199 192 191 190 184 191 182 185 189 190 191 190 188 190 190 190 191 191 189 187 188 192 194 195 192 195 196 192 193 198 199 189 196 201
198 197 197 194 195 197 200 200 200 196 191 185 188 194 188 185 189 191 192 192 190 190 192 191 192 192 190 188 191 193 196 195 196 195 201 199 191 199 201 198 193 199
196 196 195 196 197 197 200 199 199 199 191 191 192 191 193 193 188 188 191 192 195 191 190 191 191 193 192 191 194 194 196 198 197 196 198 201 198 201 200 199 195 200
200 199 197 197 199 199 200 199 196 197 195 195 195 192 191 195 194 190 185 191 195 196 193 190 191 194 194 194 195 196 197 200 200 199 201 202 203 201 199 198 202 199
201 199 200 201 202 201 201 198 197 196 196 197 195 196 194 192 194 193 190 189 195 197 198 196 193 194 196 196 196 198 199 200 202 203 203 204 205 205 199 198 201 205
200 199 200 201 203 204 202 199 197 196 196 199 196 197 196 195 193 193 195 195 197 198 198 200 198 196 197 198 197 198 200 202 203 205 208 207 206 207 205 202 202 206
199 200 199 200 201 203 202 200 200 198 196 198 197 199 197 196 196 196 196 198 201 198 199 199 200 200 198 200 200 198 200 202 204 206 208 210 210 208 209 208 207 206
200 199 199 199 199 200 201 201 201 201 200 197 196 200 201 199 196 198 199 199 201 202 202 199 200 202 201 200 201 200 199 203 204 205 207 210 212 212 211 211 209 209
200 200 199 198 197 198 200 202 202 201 201 198 196 200 202 203 202 198 200 202 201 202 204 203 201 203 202 201 201 202 201 202 204 206 207 209 212 214 214 214 212 212
198 199 198 197 196 196 199 200 200 200 201 201 200 200 201 202 204 203 201 202 202 203 204 205 206 205 205 201 199 201 203 203 203 207 208 209 210 213 216 215 216 215
195 197 196 198 199 197 196 198 199 199 200 201 201 199 199 199 201 205 203 200 202 203 204 207 208 210 204 200 201 202 202 204 204 207 210 212 212 212 215 217 218 218
194 194 195 198 197 199 197 198 198 198 200 201 200 200 199 197 201 204 204 200 201 204 206 208 211 209 203 203 203 203 202 205 208 209 210 213 215 215 217 218 219 220
191 193 195 196 198 199 199 197 198 200 201 199 201 201 196 198 202 200 204 203 200 202 208 209 213 207 201 202 203 203 205 207 213 213 213 215 216 217 218 217 218 221
189 192 194 197 197 198 198 198 199 202 202 200 200 196 198 201 200 202 203 204 203 201 207 211 212 207 200 201 203 203 205 206 218 216 218 220 219 220 221 220 218 220
187 190 194 195 196 197 198 200 201 204 203 201 198 198 199 200 199 201 204 205 207 205 205 211 214 206 199 201 202 203 205 203 218 221 224 224 224 223 223 224 223 222
186 189 191 192 192 194 198 203 203 203 202 202 201 202 203 202 205 206 205 206 208 209 209 212 215 205 200 200 201 203 201 204 214 222 226 228 227 225 225 226 226 225
186 188 189 190 190 191 197 201 203 203 205 201 204 204 201 202 205 207 207 206 208 211 215 218 217 206 200 201 201 199 195 208 211 221 228 231 231 226 228 228 228 226
187 186 188 189 189 195 197 200 201 203 203 197 202 204 207 206 205 208 209 210 211 214 214 219 224 209 196 199 198 195 193 202 209 216 227 232 235 233 232 234 233 228
185 187 188 189 192 196 195 196 198 199 198 195 205 209 214 211 206 209 212 215 217 219 218 220 226 217 188 195 197 192 194 206 206 214 226 230 232 237 235 238 241 236
184 186 188 189 192 192 193 195 192 192 195 197 201 203 207 211 207 207 211 216 216 220 222 220 222 223 184 180 181 188 194 202 209 213 224 227 228 235 239 238 242 245